Flag for India Weather past 2 weeks in Navi Mumbai, Maharashtra, India

Now
93 °F

Passing clouds.


Feels Like: 103 °F
Forecast: 76 / 90 °F
Wind: 8 mph from West

Location: Ahmadabad Airport

Current Time: Sep 23, 2014 at 6:04:48 PM

Latest Report: Sep 23, 2014 at 4:40 PM


Visibility: 4 mi

Pressure: 29.74 "Hg

Humidity: 53%

Dew point: 73 °F

Location of Navi MumbaiLocation

Historic Weather in Navi Mumbai — Graph

°F

Navi Mumbai temperature yesterday

Maximum temperature yesterday: 93 °F (at 4:40 PM)
Minimum temperature yesterday: 79 °F (at 1:40 AM)
Average temperature yesterday: 85 °F

Past Weeks' High & Low Weather Summary

 TemperatureHumidityPressure
High93 °F (Sep 18, 2:40 PM)100% (Sep 8, 1:40 PM)29.83 "Hg (Sep 8, 1:40 PM)
Low75 °F (Sep 8, 9:10 PM)53% (Sep 22, 4:40 PM)29.59 "Hg (Sep 8, 3:10 PM)
Average82 °F87%29.73 "Hg
* Reported Sep 8 12:40 PM — Sep 23 11:40 AM, Navi Mumbai, Weather by CustomWeather, © 2014

Note: Actual official high and low records may vary slightly from our data, if they occured in-between our weather recording intervals... More about our weather records

Advertising

Navi Mumbai weather history for previous 24 hours

 ConditionsComfort  
Time TempWeatherWind HumidityBarometerVisibility
11:40 AM
Sep 23
90 °FScattered clouds.3 mph67%29.83 "Hg3 mi
10:40 AM88 °FHaze.8 mph66%29.83 "Hg3 mi
9:40 AM86 °FHaze.6 mph70%29.83 "Hg2 mi
9:10 AM84 °FHaze.6 mph79%29.83 "Hg2 mi
8:40 AM82 °FHaze.6 mph79%29.83 "Hg2 mi
8:10 AM81 °FHaze.6 mph84%29.83 "Hg2 mi
7:10 AM79 °FFog.6 mph84%29.83 "Hg2 mi
6:40 AM79 °FFog.6 mph89%29.80 "Hg2 mi
6:10 AM79 °FFog.6 mph89%29.80 "Hg2 mi
5:10 AM81 °FFog.5 mph84%29.80 "Hg2 mi
4:40 AM81 °FFog.5 mph84%29.80 "Hg2 mi
4:10 AM79 °FFog.6 mph89%29.77 "Hg2 mi
3:40 AM79 °FFog.3 mph94%29.77 "Hg2 mi
2:40 AM79 °FFog.5 mph94%29.77 "Hg2 mi
2:10 AM79 °FFog.3 mph94%29.77 "Hg2 mi
1:40 AM79 °FFog.5 mph94%29.80 "Hg2 mi
1:10 AM81 °FFog.5 mph89%29.80 "Hg2 mi
12:40 AM81 °FFog.6 mph89%29.80 "Hg2 mi
12:10 AM81 °FFog.5 mph89%29.80 "Hg2 mi
11:40 PM
Sep 22
82 °FFog.2 mph84%29.83 "Hg2 mi
11:10 PM84 °FHaze.6 mph74%29.83 "Hg2 mi
10:40 PM84 °FHaze.3 mph70%29.83 "Hg2 mi
10:10 PM84 °FHaze.No wind70%29.83 "Hg2 mi
9:40 PM84 °FHaze.No wind70%29.80 "Hg2 mi
9:10 PM84 °FHaze.No wind66%29.80 "Hg2 mi
8:40 PM84 °FHaze.No wind70%29.80 "Hg2 mi
8:10 PM86 °FHaze.2 mph62%29.80 "Hg2 mi
7:40 PM86 °FHaze.2 mph66%29.80 "Hg2 mi
7:10 PM88 °FHaze.No wind62%29.77 "Hg2 mi
6:10 PM90 °FClear.5 mph59%29.74 "Hg4 mi
Weather by CustomWeather, © 2014

See weather overviewHow to use our weather pages